KE4OGG Weather Reports


Display with metric or nautical units.
time (UTC)temp
F
wind
direction
speed
MPH
gust
MPH
rain 1hr
in
rain 24hr
in
rain mn
in
humidity
%
barometer
mb
20260502202024 66 308 1.0 3.0 0.00 0.00 0.00 39 1012.0
20260502201537 67 105 1.0 3.0 0.00 0.00 0.00 39 1012.0
20260502201024 67 88 0.0 8.0 0.00 0.00 0.00 42 1012.1
20260502200523 66 88 3.0 8.0 0.00 0.00 0.00 41 1012.1
20260502200036 66 97 3.0 5.0 0.00 0.00 0.00 42 1012.1
20260502195522 65 80 1.0 3.0 0.00 0.00 0.00 44 1012.1
20260502195022 64 308 1.0 2.0 0.00 0.00 0.00 40 1012.3
20260502194534 64 306 0.0 2.0 0.00 0.00 0.00 42 1012.3
20260502194022 64 223 0.0 3.0 0.00 0.00 0.00 43 1012.4
20260502193526 64 304 1.0 6.0 0.00 0.00 0.00 43 1012.3
20260502193049 63 95 2.0 6.0 0.00 0.00 0.00 43 1012.3
20260502192524 64 105 2.0 5.0 0.00 0.00 0.00 42 1012.3
20260502192023 64 102 1.0 5.0 0.00 0.00 0.00 43 1012.4
20260502191543 64 91 2.0 5.0 0.00 0.00 0.00 43 1012.4
20260502191026 63 90 2.0 6.0 0.00 0.00 0.00 43 1012.5
20260502190526 64 95 1.0 6.0 0.00 0.00 0.00 42 1012.5
20260502190038 65 81 2.0 5.0 0.00 0.00 0.00 40 1012.6
20260502185524 65 297 1.0 4.0 0.00 0.00 0.00 38 1012.4
20260502185025 66 273 1.0 7.0 0.00 0.00 0.00 37 1012.5
20260502184543 66 300 1.0 7.0 0.00 0.00 0.00 40 1012.7
20260502184024 66 75 3.0 8.0 0.00 0.00 0.00 41 1012.6
20260502183525 66 93 3.0 8.0 0.00 0.00 0.00 38 1012.7
20260502183040 66 281 2.0 9.0 0.00 0.00 0.00 40 1012.8
20260502182523 65 338 4.0 9.0 0.00 0.00 0.00 41 1012.8
20260502182024 64 291 1.0 7.0 0.00 0.00 0.00 41 1012.9
20260502181546 64 98 4.0 9.0 0.00 0.00 0.00 40 1012.8
20260502181024 64 89 2.0 9.0 0.00 0.00 0.00 45 1012.9
20260502180524 64 103 4.0 9.0 0.00 0.00 0.00 42 1013.0
20260502164023 63 359 0.0 10.0 0.00 0.00 0.00 47 1013.7
20260502163524 62 70 2.0 10.0 0.00 0.00 0.00 48 1013.9
20260502163042 62 94 3.0 6.0 0.00 0.00 0.00 49 1013.8
20260502162524 62 295 2.0 8.0 0.00 0.00 0.00 49 1013.9
20260502162024 61 92 1.0 8.0 0.00 0.00 0.00 51 1013.9
20260502161557 61 96 2.0 6.0 0.00 0.00 0.00 52 1013.9
20260502161031 60 285 1.0 4.0 0.00 0.00 0.00 53 1013.8
20260502160523 59 84 1.0 4.0 0.00 0.00 0.00 52 1014.0
20260502152023 60 333 2.0 6.0 0.00 0.00 0.00 52 1014.1
20260502151539 60 290 1.0 5.0 0.00 0.00 0.00 53 1014.1
20260502151023 60 283 0.0 5.0 0.00 0.00 0.00 54 1013.9
20260502150524 60 359 1.0 5.0 0.00 0.00 0.00 56 1013.8
20260502130523 57 94 0.0 2.0 0.00 0.00 0.00 63 1012.9
20260502123524 56 91 0.0 3.0 0.00 0.00 0.00 69 1012.6
20260502123108 56 0 0.0 1.0 0.00 0.00 0.00 73 1012.7
20260502122524 56 132 0.0 1.0 0.00 0.00 0.00 75 1012.8
20260502122030 56 0 0.0 1.0 0.00 0.00 0.00 77 1013.1
20260502121543 55 0 0.0 1.0 0.00 0.00 0.00 77 1013.3
20260502121025 55 0 0.0 1.0 0.00 0.00 0.00 79 1013.2
20260502120527 55 0 0.0 0.0 0.00 0.00 0.00 79 1013.2
20260502115527 55 0 0.0 1.0 0.00 0.00 0.00 79 1013.1
20260502115023 55 0 0.0 1.0 0.00 0.00 0.00 79 1013.1
20260502114536 55 0 0.0 0.0 0.00 0.00 0.00 79 1013.1
20260502114023 55 0 0.0 1.0 0.00 0.00 0.00 79 1012.9
20260502113523 55 0 0.0 1.0 0.00 0.00 0.00 80 1012.8
20260502113041 55 132 0.0 1.0 0.00 0.00 0.00 80 1012.6
20260502112523 55 0 0.0 0.0 0.00 0.00 0.00 80 1012.3
20260502112024 55 0 0.0 1.0 0.00 0.00 0.00 80 1012.6
20260502111539 55 0 0.0 1.0 0.00 0.00 0.00 80 1012.3
20260502111024 55 302 0.0 1.0 0.00 0.00 0.00 81 1012.5
20260502110526 55 0 0.0 1.0 0.00 0.00 0.00 81 1012.7
20260502110047 55 0 0.0 1.0 0.00 0.00 0.00 81 1012.1
20260502105524 55 0 0.0 1.0 0.00 0.00 0.00 81 1011.6
20260502105023 55 0 0.0 1.0 0.00 0.00 0.00 81 1011.7
20260502104539 55 0 0.0 1.0 0.00 0.00 0.00 81 1011.9
20260502104023 55 0 0.0 1.0 0.00 0.00 0.00 81 1012.3
20260502103523 55 0 0.0 1.0 0.00 0.00 0.00 82 1012.5
20260502103038 55 300 0.0 1.0 0.00 0.00 0.00 82 1012.5
20260502102525 55 0 0.0 1.0 0.00 0.00 0.00 82 1012.1
20260502102032 55 0 0.0 1.0 0.00 0.00 0.00 82 1012.0
20260502101535 55 0 0.0 1.0 0.00 0.00 0.00 82 1012.0
20260502101023 55 0 0.0 1.0 0.00 0.00 0.00 82 1012.1
20260502100523 55 330 0.0 1.0 0.00 0.00 0.00 82 1011.9
20260502091023 55 0 0.0 0.0 0.00 0.00 0.00 79 1011.9
20260502090524 55 0 0.0 0.0 0.00 0.00 0.00 78 1011.8
20260502071025 57 0 0.0 0.0 0.00 0.00 0.00 67 1012.3
20260502070527 57 0 0.0 0.0 0.00 0.00 0.00 67 1012.3
20260502070040 57 0 0.0 0.0 0.00 0.00 0.00 67 1012.4
20260502065524 57 0 0.0 0.0 0.00 0.00 0.00 66 1012.4
20260502065023 57 0 0.0 0.0 0.00 0.00 0.00 66 1012.3
20260502064541 57 0 0.0 0.0 0.00 0.00 0.00 66 1012.3
20260502064023 57 0 0.0 0.0 0.00 0.00 0.00 66 1012.3
20260502063523 56 0 0.0 0.0 0.00 0.00 0.00 66 1012.2
20260502063051 57 0 0.0 0.0 0.00 0.00 0.00 65 1012.2
20260502062523 57 0 0.0 0.0 0.00 0.00 0.00 65 1012.3
20260502062023 57 0 0.0 0.0 0.00 0.00 0.00 65 1012.2
20260502061537 57 0 0.0 0.0 0.00 0.00 0.00 65 1012.3
20260502061023 57 0 0.0 1.0 0.00 0.00 0.00 65 1012.4
20260502060525 57 0 0.0 1.0 0.00 0.00 0.00 65 1012.5
20260502060044 57 92 0.0 0.0 0.00 0.00 0.00 65 1012.4
20260502055524 57 0 0.0 0.0 0.00 0.00 0.00 65 1012.4
20260502055026 57 0 0.0 0.0 0.00 0.00 0.00 65 1012.7
20260502054539 57 0 0.0 0.0 0.00 0.00 0.00 65 1012.4
20260502054023 57 0 0.0 0.0 0.00 0.00 0.00 65 1012.7
20260502053523 57 0 0.0 0.0 0.00 0.00 0.00 65 1012.5
20260502053041 57 0 0.0 0.0 0.00 0.00 0.00 65 1012.7
20260502052524 57 0 0.0 0.0 0.00 0.00 0.00 64 1012.5
20260502052024 57 0 0.0 0.0 0.00 0.00 0.00 64 1012.7
20260502051538 57 0 0.0 0.0 0.00 0.00 0.00 64 1012.7
20260502051023 57 0 0.0 0.0 0.00 0.00 0.00 64 1012.8
20260502050524 57 0 0.0 0.0 0.00 0.00 0.00 64 1012.8
20260502050039 57 0 0.0 0.0 0.00 0.00 0.00 63 1013.0
20260502045523 57 0 0.0 0.0 0.00 0.00 0.00 63 1013.0
20260502045027 57 0 0.0 0.0 0.00 0.00 0.00 63 1013.1
20260502044543 57 0 0.0 0.0 0.00 0.00 0.00 63 1013.1
20260502044025 58 0 0.0 0.0 0.00 0.00 0.00 63 1013.1
20260502043526 58 0 0.0 0.0 0.00 0.00 0.00 63 1013.2
20260502043045 58 0 0.0 0.0 0.00 0.00 0.00 63 1013.3
20260502042524 58 0 0.0 0.0 0.00 0.00 0.00 63 1013.3
20260502042024 58 0 0.0 0.0 0.00 0.00 0.00 62 1013.3
20260502041545 58 0 0.0 0.0 0.00 0.00 0.00 62 1013.2
20260502041023 58 0 0.0 0.0 0.00 0.00 0.00 62 1013.3
20260502040523 58 0 0.0 0.0 0.00 0.00 0.00 62 1013.4
20260502040040 58 0 0.0 0.0 0.00 0.00 0.00 62 1013.4
20260502035523 58 0 0.0 0.0 0.00 0.00 0.00 62 1013.5
20260502035023 58 0 0.0 0.0 0.00 0.00 0.00 62 1013.6
20260502034537 58 0 0.0 0.0 0.00 0.00 0.00 62 1013.5
20260502034023 58 0 0.0 0.0 0.00 0.00 0.00 62 1013.5
20260502033526 58 0 0.0 0.0 0.00 0.00 0.00 62 1013.4
20260502033043 58 0 0.0 0.0 0.00 0.00 0.00 62 1013.6
20260502032526 58 0 0.0 0.0 0.00 0.00 0.00 61 1013.5
20260502032024 58 0 0.0 0.0 0.00 0.00 0.00 61 1013.4
20260502031540 58 0 0.0 0.0 0.00 0.00 0.00 61 1013.5
20260502031025 58 0 0.0 0.0 0.00 0.00 0.00 61 1013.6
20260502030524 58 0 0.0 0.0 0.00 0.00 0.00 61 1013.6
20260502030039 58 0 0.0 0.0 0.00 0.00 0.00 61 1013.5
20260502025523 58 0 0.0 0.0 0.00 0.00 0.00 61 1013.6
20260502025026 58 0 0.0 0.0 0.00 0.00 0.00 61 1013.6
20260502024547 58 0 0.0 0.0 0.00 0.00 0.00 61 1013.6
20260502024023 58 0 0.0 0.0 0.00 0.00 0.00 61 1013.7
20260502023523 58 0 0.0 0.0 0.00 0.00 0.00 60 1013.7
20260502023038 58 0 0.0 0.0 0.00 0.00 0.00 60 1013.6
20260502022524 58 0 0.0 0.0 0.00 0.00 0.00 60 1013.5
20260502022025 58 0 0.0 0.0 0.00 0.00 0.00 59 1013.4
20260502021542 59 0 0.0 0.0 0.00 0.00 0.00 59 1013.5
20260502021025 59 0 0.0 0.0 0.00 0.00 0.00 59 1013.5
20260502020523 59 0 0.0 0.0 0.00 0.00 0.00 59 1013.5
20260502020041 59 0 0.0 0.0 0.00 0.00 0.00 59 1013.4
20260502015524 59 0 0.0 0.0 0.00 0.00 0.00 59 1013.4
20260502015023 59 0 0.0 0.0 0.00 0.00 0.00 58 1013.3
20260502014540 59 0 0.0 0.0 0.00 0.00 0.00 59 1013.4
20260502014023 59 0 0.0 1.0 0.00 0.00 0.00 58 1013.4
20260502013523 59 0 0.0 1.0 0.00 0.00 0.00 58 1013.4
20260502013039 59 92 0.0 0.0 0.00 0.00 0.00 57 1013.4
20260502012524 60 0 0.0 0.0 0.00 0.00 0.00 56 1013.5
20260502012027 60 0 0.0 0.0 0.00 0.00 0.00 56 1013.3
20260502011537 60 0 0.0 0.0 0.00 0.00 0.00 56 1013.1
20260502011024 60 0 0.0 0.0 0.00 0.00 0.00 57 1013.1
20260502010523 60 0 0.0 0.0 0.00 0.00 0.00 56 1013.2
20260502010048 60 0 0.0 0.0 0.00 0.00 0.00 56 1013.1
20260502005524 60 0 0.0 0.0 0.00 0.00 0.00 55 1013.3
20260502005023 60 0 0.0 0.0 0.00 0.00 0.00 55 1013.1
20260502004547 60 0 0.0 0.0 0.00 0.00 0.00 54 1013.1
20260502004023 61 0 0.0 0.0 0.00 0.00 0.00 54 1013.0
20260502003523 61 0 0.0 1.0 0.00 0.00 0.00 54 1012.9
20260502003039 61 0 0.0 1.0 0.00 0.00 0.00 54 1012.8
20260502002523 61 0 0.0 1.0 0.00 0.00 0.00 54 1012.8
20260502002024 61 0 0.0 1.0 0.00 0.00 0.00 54 1012.8
20260502001539 61 0 0.0 1.0 0.00 0.00 0.00 53 1012.9
20260502001023 61 92 0.0 1.0 0.00 0.00 0.00 53 1012.8
20260502000523 62 0 0.0 2.0 0.00 0.00 0.00 52 1012.9
20260502000038 62 0 0.0 2.0 0.00 0.00 0.00 52 1012.8
20260501235527 62 92 0.0 2.0 0.00 0.00 0.00 51 1012.6
20260501235023 62 92 1.0 2.0 0.00 0.00 0.00 51 1012.4
20260501234537 62 0 0.0 1.0 0.00 0.00 0.00 51 1012.7
20260501234027 62 0 0.0 1.0 0.00 0.00 0.00 50 1012.9
20260501233522 63 0 0.0 1.0 0.00 0.00 0.00 50 1012.7
20260501233039 63 93 0.0 2.0 0.00 0.00 0.00 49 1012.4
20260501232522 63 0 0.0 2.0 0.00 0.00 0.00 49 1012.3
20260501232023 63 84 1.0 2.0 0.00 0.00 0.00 47 1012.2
20260501231540 64 94 0.0 2.0 0.00 0.00 0.00 47 1012.3
20260501231025 64 94 0.0 3.0 0.00 0.00 0.00 47 1012.3
20260501230525 64 0 0.0 3.0 0.00 0.00 0.00 47 1012.2
20260501230039 64 97 0.0 5.0 0.00 0.00 0.00 46 1012.2
20260501225525 65 167 0.0 5.0 0.00 0.00 0.00 45 1012.0
20260501225023 65 83 1.0 5.0 0.00 0.00 0.00 44 1012.0
20260501224545 66 0 0.0 2.0 0.00 0.00 0.00 45 1011.8
20260501224023 66 212 0.0 1.0 0.00 0.00 0.00 44 1011.8
20260501223527 66 212 0.0 1.0 0.00 0.00 0.00 45 1011.9
20260501223037 65 0 0.0 2.0 0.00 0.00 0.00 45 1012.0
20260501222523 65 212 0.0 2.0 0.00 0.00 0.00 44 1012.1
20260501222023 66 212 0.0 2.0 0.00 0.00 0.00 44 1012.3
20260501221535 66 209 0.0 1.0 0.00 0.00 0.00 44 1012.3
20260501221024 66 0 0.0 1.0 0.00 0.00 0.00 43 1012.3
20260501220524 66 209 0.0 1.0 0.00 0.00 0.00 42 1012.4
20260501220048 66 0 0.0 1.0 0.00 0.00 0.00 43 1012.4
20260501215524 66 0 0.0 5.0 0.00 0.00 0.00 42 1012.5
20260501215024 66 0 0.0 5.0 0.00 0.00 0.00 42 1012.6
20260501214539 67 91 1.0 4.0 0.00 0.00 0.00 42 1012.7
20260501214023 67 87 0.0 4.0 0.00 0.00 0.00 42 1012.6
20260501213524 67 94 1.0 4.0 0.00 0.00 0.00 41 1012.5
20260501213047 68 0 1.0 2.0 0.00 0.00 0.00 40 1012.8
20260501212523 68 0 0.0 3.0 0.00 0.00 0.00 41 1012.8
20260501212023 68 0 0.0 3.0 0.00 0.00 0.00 40 1013.0
20260501211537 68 281 1.0 3.0 0.00 0.00 0.00 38 1013.0
20260501211023 68 0 0.0 2.0 0.00 0.00 0.00 39 1013.0
20260501210524 69 267 0.0 2.0 0.00 0.00 0.00 39 1013.0
20260501210042 69 85 0.0 1.0 0.00 0.00 0.00 39 1012.9
20260501205527 68 84 0.0 3.0 0.00 0.00 0.00 38 1013.0
20260501205023 68 85 0.0 3.0 0.00 0.00 0.00 38 1013.1
20260501204541 68 0 0.0 2.0 0.00 0.00 0.00 37 1013.1
20260501204025 69 0 0.0 1.0 0.00 0.00 0.00 37 1013.2
20260501203524 68 0 0.0 1.0 0.00 0.00 0.00 38 1013.2
20260501203041 68 0 0.0 1.0 0.00 0.00 0.00 38 1013.3
20260501202524 67 314 0.0 3.0 0.00 0.00 0.00 39 1013.3